Regional Weather Roundup
Issued by NWS

Home | Current Version | Previous Version | Graphics & Text | Print | Product List | Glossary On
Versions: 1 2 3 4 5 6 7 8 9 10 11 12 13 14 15 16 17 18 19 20 21 22 23 24 25 26 27 28 29 30 31 32 33 34 35 36 37 38 39 40 41 42 43 44 45 46 47 48 49 50
000
ASUS45 KSLC 280210
RWRUT

UTAH REGIONAL WEATHER ROUNDUP
NATIONAL WEATHER SERVICE SALT LAKE CITY UT
800 PM MDT SUN JUL 27 2014

UTZ001>011-023>025-280300-

NORTHERN UTAH

CITY           SKY/WX    TMP DP  RH WIND       PRES   REMARKS
HILL AFB       PTCLDY    94  34  12 N7        30.12S
LOGAN          CLEAR     91  43  18 N8        30.09S
OGDEN          PTCLDY    92  37  14 W3        30.08S
PROVO AIRPORT  NOT AVBL
SALT LAKE CITY MOCLDY    89  46  22 W8        30.05S
VERNAL         PTCLDY    86  47  25 W3        30.17S
WENDOVER       PTCLDY    93  37  14 E5        30.07F
HEBER CITY     CLEAR     84  45  24 CALM      30.18F
WEST JORDAN    CLEAR     91  48  22 NW3       30.11S

$$

UTZ012>022-026-027-280300-

SOUTHERN UTAH

CITY           SKY/WX    TMP DP  RH WIND       PRES   REMARKS
BRYCE CANYON   CLOUDY    62  54  74 NW10      30.40F
CEDAR CITY     CLOUDY    71  61  70 S6        30.22R
MILFORD        CLOUDY    87  46  24 S8        30.15R
MOAB/CYNLANDS  PTCLDY    88  46  23 NE16      30.07R
PRICE          PTCLDY    87  36  16 N6        30.21S
ST GEORGE      CLEAR     91  50  24 SE9       30.01R
KANAB            N/A     81  52  36 S8        30.20R

$$

REGIONAL REPORTS     COLORADO/ARIZONA

CITY           SKY/WX    TMP DP  RH WIND       PRES   REMARKS
CRAIG, CO      PTCLDY    75  43  31 CALM      30.27S
GRAND JUNCTION CLOUDY    84  48  28 SE18G29   30.15R
RIFLE          MOCLDY    86  41  20 S18       30.20R
MONTROSE       CLOUDY    76  51  41 CALM      30.30R
CORTEZ         MOCLDY    78  50  37 SE23G33   30.27R THUNDER
PAGE, AZ       MOCLDY    90  49  24 NW9       30.09R
GRAND CANYON   LGT RAIN  70  54  56 S12G18    30.34R
KINGMAN        MOCLDY    86  54  33 N10       30.08R HAZE
FLAGSTAFF      CLOUDY    66  51  58 VRB6      30.35F

$$

REGIONAL REPORTS    NEVADA/IDAHO/WYOMING

CITY           SKY/WX    TMP DP  RH WIND       PRES   REMARKS
LAS VEGAS, NV  MOCLDY    83  60  45 SW16      29.93R THUNDER
ELY            LGT RAIN  69  52  54 W8        30.36R
ELKO           CLOUDY    85  39  19 S7        30.15F
POCATELLO, ID  CLEAR     93  29  10 E6        30.12S
BURLEY         MOCLDY    87  43  21 N7        30.06S
EVANSTON, WY   PTCLDY    83  25  12 E8        30.34S
ROCK SPRINGS   CLEAR     83  23  11 E17       30.32S

$$



USA.gov is the U.S. government's official web portal to all federal, state and local government web resources and services.